DW8201 Weather Reports


Display with metric or nautical units.
time (UTC)temp
F
wind
direction
speed
MPH
gust
MPH
rain 1hr
in
rain 24hr
in
rain mn
in
humidity
%
barometer
mb
20260903155618 74 167 4.0 12.0 0.00 0.02 0.02 77 1016.5
20260903155107 74 280 5.0 12.0 0.00 0.02 0.02 77 1016.5
20260903154605 73 224 4.0 9.0 0.00 0.02 0.02 76 1016.5
20260903154157 74 226 4.0 14.0 0.00 0.02 0.02 76 1016.6
20260903153638 74 260 6.0 14.0 0.00 0.02 0.02 75 1016.5
20260903153130 74 202 7.0 19.0 0.00 0.02 0.02 75 1016.5
20260903152623 74 208 6.0 19.0 0.00 0.02 0.02 75 1016.5
20260903152115 74 218 6.0 16.0 0.00 0.02 0.02 75 1016.4
20260903151610 74 227 8.0 20.0 0.00 0.02 0.02 75 1016.4
20260903151101 74 215 8.0 20.0 0.00 0.02 0.02 76 1016.4
20260903150557 73 248 6.0 16.0 0.00 0.02 0.02 76 1016.3
20260903150206 73 165 5.0 12.0 0.00 0.02 0.02 77 1016.4
20260903145645 73 239 5.0 14.0 0.00 0.02 0.02 76 1016.4
20260903145538 73 320 5.0 14.0 0.00 0.02 0.02 76 1016.5
20260903144628 74 208 5.0 13.0 0.00 0.02 0.02 77 1016.5
20260903144624 74 221 5.0 13.0 0.00 0.02 0.02 76 1016.5
20260903144115 74 201 5.0 13.0 0.00 0.02 0.02 76 1016.6
20260903143101 74 181 4.0 12.0 0.00 0.02 0.02 76 1016.6
20260903142555 74 230 6.0 12.0 0.00 0.02 0.02 76 1016.5
20260903142550 74 184 4.0 11.0 0.00 0.02 0.02 77 1016.4
20260903142147 74 204 5.0 12.0 0.00 0.02 0.02 76 1016.4
20260903141535 74 242 7.0 13.0 0.00 0.02 0.02 78 1016.5
20260903141230 74 221 5.0 13.0 0.00 0.02 0.02 78 1016.5
20260903140520 73 210 7.0 15.0 0.00 0.02 0.02 79 1016.6
20260903135607 73 169 6.0 15.0 0.00 0.02 0.02 80 1016.6
20260903135057 73 194 5.0 14.0 0.00 0.02 0.02 81 1016.5
20260903134548 73 222 5.0 14.0 0.00 0.02 0.02 82 1016.5
20260903134046 72 212 5.0 9.0 0.00 0.02 0.02 83 1016.6
20260903133637 71 239 4.0 10.0 0.00 0.02 0.02 83 1016.7
20260903133129 71 206 4.0 10.0 0.00 0.02 0.02 84 1016.6
20260903133020 70 181 4.0 9.0 0.00 0.02 0.02 85 1016.8
20260903132116 70 200 4.0 8.0 0.00 0.02 0.02 85 1016.8
20260903131606 70 210 4.0 11.0 0.00 0.02 0.02 84 1016.9
20260903131050 70 220 4.0 11.0 0.00 0.02 0.02 83 1016.9
20260903130545 70 238 3.0 11.0 0.00 0.02 0.02 81 1016.8
20260903130054 71 216 3.0 11.0 0.00 0.02 0.02 81 1016.8
20260903125636 71 179 4.0 11.0 0.00 0.02 0.02 80 1016.6
20260903125531 71 210 4.0 11.0 0.00 0.02 0.02 79 1016.6
20260903124626 71 209 5.0 12.0 0.00 0.02 0.02 80 1016.5
20260903124516 71 233 5.0 12.0 0.00 0.02 0.02 79 1016.6
20260903123613 71 260 5.0 10.0 0.00 0.02 0.02 80 1016.6
20260903123105 71 251 5.0 10.0 0.00 0.02 0.02 80 1016.5
20260903122557 71 184 4.0 11.0 0.00 0.02 0.02 79 1016.6
20260903122050 71 325 4.0 11.0 0.00 0.02 0.02 80 1016.6
20260903121529 71 244 3.0 9.0 0.00 0.02 0.02 80 1016.6
20260903121029 71 257 4.0 10.0 0.00 0.02 0.02 80 1016.5
20260903120618 71 274 5.0 14.0 0.00 0.02 0.02 79 1016.6
20260903120112 71 249 5.0 14.0 0.00 0.02 0.02 80 1016.6
20260903115601 71 241 5.0 12.0 0.00 0.02 0.02 80 1016.5
20260903115052 71 298 6.0 16.0 0.00 0.02 0.02 81 1016.5
20260903114544 70 224 6.0 16.0 0.00 0.02 0.02 82 1016.6
20260903114433 70 165 3.0 9.0 0.00 0.02 0.02 83 1016.6
20260903113519 69 255 3.0 8.0 0.00 0.02 0.02 84 1016.6
20260903113023 69 316 3.0 8.0 0.00 0.02 0.02 84 1016.7
20260903112613 68 310 3.0 11.0 0.00 0.02 0.02 85 1016.7
20260903112502 68 261 4.0 11.0 0.00 0.02 0.02 85 1016.7
20260903111559 68 213 5.0 12.0 0.00 0.02 0.02 85 1016.7
20260903111050 68 278 6.0 12.0 0.00 0.02 0.02 85 1016.7
20260903110541 68 226 7.0 13.0 0.00 0.02 0.02 86 1016.6
20260903110034 68 190 6.0 16.0 0.00 0.02 0.02 86 1016.6
20260903105524 68 229 6.0 16.0 0.00 0.02 0.02 86 1016.5
20260903105015 68 162 6.0 13.0 0.00 0.02 0.02 86 1016.5
20260903104509 68 225 6.0 15.0 0.00 0.02 0.02 86 1016.5
20260903104059 68 214 6.0 15.0 0.00 0.02 0.02 85 1016.5
20260903103552 68 207 6.0 14.0 0.00 0.02 0.02 86 1016.4
20260903103046 68 188 6.0 14.0 0.00 0.02 0.02 86 1016.4
20260903102539 68 233 5.0 12.0 0.00 0.02 0.02 86 1016.5
20260903102032 67 232 5.0 12.0 0.00 0.02 0.02 86 1016.5
20260903101520 67 224 6.0 13.0 0.00 0.02 0.02 86 1016.6
20260903101412 67 198 5.0 13.0 0.00 0.02 0.02 86 1016.6
20260903100516 67 206 5.0 12.0 0.00 0.02 0.02 86 1016.6
20260903100353 67 222 6.0 14.0 0.00 0.02 0.02 86 1016.5
20260903095545 67 224 6.0 14.0 0.00 0.02 0.02 86 1016.5
20260903095038 67 195 5.0 11.0 0.00 0.02 0.02 86 1016.4
20260903094529 67 232 4.0 10.0 0.00 0.02 0.02 86 1016.4
20260903094019 67 212 5.0 11.0 0.00 0.02 0.02 86 1016.2
20260903093509 67 302 5.0 13.0 0.00 0.02 0.02 86 1016.3
20260903092957 66 176 5.0 13.0 0.00 0.02 0.02 86 1016.3
20260903092952 66 187 5.0 11.0 0.00 0.02 0.02 87 1016.3
20260903092049 66 210 5.0 13.0 0.00 0.02 0.02 87 1016.2
20260903091540 66 193 6.0 13.0 0.00 0.02 0.02 87 1016.1
20260903091035 66 148 5.0 12.0 0.00 0.02 0.02 87 1016.0
20260903090527 66 201 5.0 12.0 0.00 0.02 0.02 87 1015.9
20260903090017 66 163 5.0 11.0 0.01 0.02 0.02 88 1015.9
20260903085511 65 195 6.0 11.0 0.02 0.02 0.02 88 1015.7
20260903085002 65 169 6.0 11.0 0.02 0.02 0.02 89 1015.8
20260903084451 65 195 6.0 11.0 0.02 0.02 0.02 88 1015.9
20260903084041 65 193 6.0 11.0 0.02 0.02 0.02 88 1016.1
20260903083532 65 218 5.0 11.0 0.02 0.02 0.02 88 1016.1
20260903083024 65 166 4.0 10.0 0.02 0.02 0.02 88 1016.2
20260903082617 65 165 5.0 10.0 0.02 0.02 0.02 88 1016.2
20260903082515 65 249 5.0 10.0 0.02 0.02 0.02 88 1016.1
20260903081459 65 195 5.0 10.0 0.02 0.02 0.02 88 1016.1
20260903080951 65 200 4.0 9.0 0.02 0.02 0.02 88 1016.1
20260903080541 65 203 5.0 10.0 0.02 0.02 0.02 87 1016.1
20260903080334 65 242 5.0 11.0 0.01 0.01 0.02 86 1016.1
20260903075523 65 228 4.0 11.0 0.00 0.00 0.00 85 1016.1
20260903075014 65 213 4.0 8.0 0.00 0.00 0.00 84 1016.2
20260903074507 65 171 4.0 10.0 0.00 0.00 0.00 84 1016.3
20260903074003 65 187 5.0 10.0 0.00 0.00 0.00 83 1016.1
20260903073453 65 189 5.0 10.0 0.00 0.00 0.00 83 1016.1
20260903073345 65 213 5.0 10.0 0.00 0.00 0.00 83 1016.0
20260903073043 65 205 5.0 10.0 0.00 0.00 0.00 83 1016.0
20260903072034 65 213 5.0 9.0 0.00 0.00 0.00 82 1016.1
20260903071526 65 222 4.0 10.0 0.00 0.00 0.00 82 1016.0
20260903071017 65 191 5.0 10.0 0.00 0.00 0.00 81 1016.1
20260903070510 65 194 5.0 12.0 0.00 0.00 0.00 81 1016.1
20260903070258 65 190 5.0 10.0 0.00 0.00 0.00 81 1016.0
20260903065958 65 196 5.0 12.0 0.00 0.00 0.00 81 1016.1
20260903064949 65 188 6.0 11.0 0.00 0.00 0.00 81 1016.0
20260903064836 65 210 5.0 11.0 0.00 0.00 0.00 80 1016.0
20260903064529 65 191 6.0 11.0 0.00 0.00 0.00 80 1016.0
20260903064026 65 169 5.0 11.0 0.00 0.00 0.00 80 1016.0
20260903063013 65 211 5.0 9.0 0.00 0.00 0.00 80 1015.9
20260903062505 65 185 5.0 12.0 0.00 0.00 0.00 80 1015.9
20260903061955 65 148 5.0 13.0 0.00 0.00 0.00 79 1015.8
20260903061446 65 198 5.0 13.0 0.00 0.00 0.00 79 1015.8
20260903060938 65 229 6.0 12.0 0.00 0.00 0.00 78 1015.6
20260903060531 65 183 5.0 12.0 0.00 0.00 0.00 78 1015.6
20260903060024 65 174 5.0 10.0 0.00 0.00 0.00 78 1015.7
20260903055517 65 170 6.0 10.0 0.00 0.00 0.00 77 1015.8
20260903055009 65 210 6.0 13.0 0.00 0.00 0.00 76 1015.9
20260903054859 65 183 5.0 13.0 0.00 0.00 0.00 76 1016.0
20260903054350 65 179 5.0 11.0 0.00 0.00 0.00 76 1016.0
20260903053444 65 243 5.0 11.0 0.00 0.00 0.00 76 1016.0
20260903053331 65 170 5.0 10.0 0.00 0.00 0.00 76 1015.9
20260903052540 65 182 5.0 9.0 0.00 0.00 0.00 75 1015.8
20260903052319 65 185 5.0 9.0 0.00 0.00 0.00 75 1015.9
20260903051510 65 171 5.0 9.0 0.00 0.00 0.00 75 1015.8
20260903051258 65 185 5.0 12.0 0.00 0.00 0.00 76 1015.6
20260903050951 65 173 5.0 9.0 0.00 0.00 0.00 76 1015.7
20260903050447 65 164 5.0 12.0 0.00 0.00 0.00 76 1015.5
20260903045438 65 218 5.0 10.0 0.00 0.00 0.00 76 1015.7
20260903044927 65 193 5.0 10.0 0.00 0.00 0.00 75 1015.7
20260903044419 65 184 5.0 13.0 0.00 0.00 0.00 75 1015.8
20260903044011 65 201 5.0 13.0 0.00 0.00 0.00 75 1016.0
20260903043516 65 201 5.0 13.0 0.00 0.00 0.00 75 1016.0
20260903042956 65 230 5.0 13.0 0.00 0.00 0.00 75 1016.1
20260903042447 65 200 6.0 10.0 0.00 0.00 0.00 74 1016.0
20260903041939 65 203 6.0 15.0 0.00 0.00 0.00 74 1016.3
20260903041428 65 210 5.0 15.0 0.00 0.00 0.00 74 1016.2
20260903040919 65 227 5.0 10.0 0.00 0.00 0.00 74 1016.3
20260903040509 65 230 6.0 15.0 0.00 0.00 0.00 75 1016.3
20260903040304 65 239 6.0 15.0 0.00 0.00 0.00 75 1016.0
20260903035755 65 177 6.0 14.0 0.00 0.00 0.00 76 1016.0
20260903034945 65 173 7.0 14.0 0.00 0.00 0.00 76 1015.8
20260903034737 65 175 7.0 13.0 0.00 0.00 0.00 76 1015.9
20260903034229 65 213 6.0 13.0 0.00 0.00 0.00 76 1015.9
20260903033419 65 224 6.0 10.0 0.00 0.00 0.00 76 1015.9
20260903033011 65 193 5.0 12.0 0.00 0.00 0.00 76 1016.0
20260903032802 65 192 4.0 12.0 0.00 0.00 0.00 76 1016.3
20260903031951 65 188 4.0 10.0 0.00 0.00 0.00 76 1016.3
20260903031441 64 192 4.0 10.0 0.00 0.00 0.00 76 1016.3
20260903030933 64 191 5.0 10.0 0.00 0.00 0.00 76 1016.3
20260903030425 64 212 5.0 10.0 0.00 0.00 0.00 76 1016.4
20260903025919 64 190 4.0 10.0 0.00 0.00 0.00 76 1016.5
20260903025511 64 197 4.0 9.0 0.00 0.00 0.00 76 1016.7
20260903025005 64 207 5.0 9.0 0.00 0.00 0.00 77 1016.7
20260903024551 64 195 4.0 9.0 0.00 0.00 0.00 77 1016.6
20260903024244 64 169 5.0 9.0 0.00 0.00 0.00 78 1016.6
20260903024140 64 191 5.0 9.0 0.00 0.00 0.00 77 1016.6
20260903023024 64 172 5.0 10.0 0.00 0.00 0.00 78 1016.5
20260903022521 64 175 4.0 10.0 0.00 0.00 0.00 78 1016.5
20260903022009 64 170 4.0 7.0 0.00 0.00 0.00 79 1016.6
20260903021559 64 200 4.0 7.0 0.00 0.00 0.00 79 1016.6
20260903021059 64 193 4.0 7.0 0.00 0.00 0.00 79 1016.6
20260903020548 64 191 4.0 12.0 0.00 0.00 0.00 79 1016.7
20260903020053 64 199 5.0 12.0 0.00 0.00 0.00 79 1016.6
20260903015533 64 201 4.0 8.0 0.00 0.00 0.00 79 1016.6
20260903015025 64 168 4.0 8.0 0.00 0.00 0.00 79 1016.8
20260903014825 64 188 3.0 7.0 0.00 0.00 0.00 79 1016.9
20260903014006 64 176 3.0 7.0 0.00 0.00 0.00 79 1016.9
20260903013555 64 170 3.0 9.0 0.00 0.00 0.00 79 1017.0
20260903013045 64 167 3.0 9.0 0.00 0.00 0.00 78 1017.0
20260903012542 64 205 4.0 7.0 0.00 0.00 0.00 78 1017.0
20260903012033 65 179 4.0 7.0 0.00 0.00 0.00 78 1017.0
20260903011526 65 171 3.0 7.0 0.00 0.00 0.00 78 1017.2
20260903011018 65 196 3.0 7.0 0.00 0.00 0.00 77 1017.3
20260903010507 65 210 4.0 7.0 0.00 0.00 0.00 77 1017.4
20260903005959 65 181 5.0 10.0 0.00 0.00 0.00 77 1017.5
20260903005547 65 220 5.0 11.0 0.00 0.00 0.00 77 1017.5
20260903005040 65 208 4.0 11.0 0.00 0.00 0.00 77 1017.4
20260903004529 65 231 4.0 10.0 0.00 0.00 0.00 77 1017.5
20260903004025 64 204 4.0 10.0 0.00 0.00 0.00 78 1017.6
20260903003517 64 193 4.0 10.0 0.00 0.00 0.00 78 1017.7
20260903003010 64 193 3.0 6.0 0.00 0.00 0.00 78 1017.6
20260903002811 64 173 3.0 6.0 0.00 0.00 0.00 78 1017.6
20260903001954 64 188 3.0 7.0 0.00 0.00 0.00 78 1017.6
20260903001444 64 179 3.0 7.0 0.00 0.00 0.00 78 1017.6
20260903001031 64 212 4.0 7.0 0.00 0.00 0.00 77 1017.6
20260903000520 64 203 4.0 7.0 0.00 0.00 0.00 77 1017.7
20260903000024 64 181 4.0 8.0 0.00 0.00 0.00 78 1017.9
20260903000012 64 193 3.0 7.0 0.00 0.00 0.00 77 1017.9
20260902235001 64 181 3.0 8.0 0.00 0.00 0.00 78 1018.0
20260902234452 64 189 1.0 6.0 0.00 0.00 0.00 78 1018.1
20260902233944 64 166 1.0 4.0 0.00 0.00 0.00 79 1018.2
20260902233531 64 228 2.0 4.0 0.00 0.00 0.00 78 1018.2
20260902233022 64 181 2.0 5.0 0.00 0.00 0.00 79 1018.1
20260902232519 64 213 2.0 5.0 0.00 0.00 0.00 79 1018.1
20260902232008 64 185 3.0 6.0 0.00 0.00 0.00 79 1018.0
20260902231458 64 191 3.0 7.0 0.00 0.00 0.00 79 1018.1
20260902230956 64 183 3.0 7.0 0.00 0.00 0.00 79 1018.1
20260902230448 64 177 2.0 5.0 0.00 0.00 0.00 79 1018.2
20260902225934 64 203 1.0 5.0 0.00 0.00 0.00 80 1018.4
20260902225522 64 203 1.0 5.0 0.00 0.00 0.00 80 1018.5
20260902225019 63 180 2.0 5.0 0.00 0.00 0.00 81 1018.4
20260902225013 63 185 2.0 5.0 0.00 0.00 0.00 80 1018.5
20260902223959 63 193 2.0 5.0 0.00 0.00 0.00 80 1018.4
20260902223447 63 184 1.0 4.0 0.00 0.00 0.00 81 1018.4
20260902222941 63 164 0.0 5.0 0.00 0.00 0.00 80 1018.4
20260902222435 63 179 1.0 5.0 0.00 0.00 0.00 80 1018.4
20260902222023 64 185 2.0 5.0 0.00 0.00 0.00 80 1018.4
20260902221514 64 166 2.0 5.0 0.00 0.00 0.00 80 1018.4
20260902221003 64 152 1.0 4.0 0.00 0.00 0.00 80 1018.4
20260902220456 64 171 0.0 3.0 0.00 0.00 0.00 79 1018.4
20260902215947 64 156 1.0 5.0 0.00 0.00 0.00 79 1018.4
20260902215439 64 172 2.0 6.0 0.00 0.00 0.00 79 1018.3
20260902214931 64 179 2.0 6.0 0.00 0.00 0.00 79 1018.3
20260902214520 64 185 2.0 6.0 0.00 0.00 0.00 79 1018.3
20260902214014 64 170 3.0 6.0 0.00 0.00 0.00 79 1018.5
20260902213505 64 179 2.0 4.0 0.00 0.00 0.00 79 1018.5
20260902212955 64 176 2.0 4.0 0.00 0.00 0.00 79 1018.6
20260902212451 64 195 2.0 6.0 0.00 0.00 0.00 79 1018.7
20260902211947 64 173 2.0 5.0 0.00 0.00 0.00 79 1018.6
20260902211942 64 189 2.0 6.0 0.00 0.00 0.00 79 1018.6
20260902211636 64 181 3.0 5.0 0.00 0.00 0.00 79 1018.7
20260902210419 64 206 3.0 5.0 0.00 0.00 0.00 79 1018.7
20260902205912 65 180 3.0 5.0 0.00 0.00 0.00 79 1018.8
20260902205411 65 195 3.0 7.0 0.00 0.00 0.00 79 1018.7
20260902204959 65 183 3.0 7.0 0.00 0.00 0.00 78 1018.7
20260902204448 65 185 3.0 6.0 0.00 0.00 0.00 78 1018.7
20260902203944 65 194 3.0 7.0 0.00 0.00 0.00 78 1018.7
20260902203435 65 180 3.0 7.0 0.00 0.00 0.00 78 1018.7
20260902202928 65 141 2.0 6.0 0.00 0.00 0.00 77 1018.6
20260902202418 65 187 3.0 6.0 0.00 0.00 0.00 77 1018.7
20260902201913 65 157 3.0 6.0 0.00 0.00 0.00 76 1018.7
20260902201406 65 174 2.0 6.0 0.00 0.00 0.00 76 1018.7
20260902200900 65 147 2.0 5.0 0.00 0.00 0.00 76 1018.8
20260902200352 66 170 1.0 5.0 0.00 0.00 0.00 76 1018.9
20260902195949 66 193 0.0 0.0 0.00 0.00 0.00 76 1019.0
20260902195944 66 180 0.0 3.0 0.00 0.00 0.00 76 1019.0
20260902195640 66 181 0.0 0.0 0.00 0.00 0.00 76 1018.9
20260902194422 66 175 0.0 0.0 0.00 0.00 0.00 76 1018.9
20260902193915 66 174 0.0 0.0 0.00 0.00 0.00 75 1018.9
20260902193409 66 197 0.0 0.0 0.00 0.00 0.00 76 1019.0
20260902192909 66 179 0.0 0.0 0.00 0.00 0.00 75 1018.9
20260902192904 66 197 0.0 0.0 0.00 0.00 0.00 76 1019.0
20260902191849 66 168 0.0 0.0 0.00 0.00 0.00 75 1018.9
20260902191339 66 158 0.0 0.0 0.00 0.00 0.00 75 1018.9
20260902190833 66 172 0.0 0.0 0.00 0.00 0.00 75 1018.9
20260902190335 67 192 0.0 3.0 0.00 0.00 0.00 74 1018.9
20260902190331 66 173 0.0 0.0 0.00 0.00 0.00 74 1018.9
20260902185417 67 192 1.0 3.0 0.00 0.00 0.00 74 1018.9
20260902184911 67 195 1.0 3.0 0.00 0.00 0.00 74 1018.9
20260902184402 67 222 1.0 5.0 0.00 0.00 0.00 73 1018.9
20260902183858 67 196 2.0 5.0 0.00 0.00 0.00 73 1018.9
20260902183348 67 211 1.0 4.0 0.00 0.00 0.00 73 1018.9
20260902182840 67 190 1.0 5.0 0.00 0.00 0.00 73 1018.9
20260902182331 67 195 0.0 5.0 0.00 0.00 0.00 73 1018.9
20260902181826 67 187 1.0 5.0 0.00 0.00 0.00 73 1018.9
20260902181315 67 201 2.0 5.0 0.00 0.00 0.00 73 1018.9
20260902180913 68 183 2.0 7.0 0.00 0.00 0.00 72 1018.8
20260902180909 67 194 2.0 5.0 0.00 0.00 0.00 73 1018.7
20260902180904 67 191 2.0 5.0 0.00 0.00 0.00 73 1018.8
20260902175344 68 199 1.0 7.0 0.00 0.00 0.00 72 1018.8
20260902174837 68 193 0.0 1.0 0.00 0.00 0.00 72 1018.8
20260902174329 68 205 1.0 5.0 0.00 0.00 0.00 72 1018.7
20260902173820 68 193 2.0 7.0 0.00 0.00 0.00 72 1018.7
20260902173317 68 201 2.0 6.0 0.00 0.00 0.00 71 1018.8
20260902173313 68 176 2.0 7.0 0.00 0.00 0.00 71 1018.7
20260902172308 68 196 1.0 7.0 0.00 0.00 0.00 70 1018.8
20260902171848 68 242 2.0 7.0 0.00 0.00 0.00 70 1018.8
20260902171341 68 218 3.0 7.0 0.00 0.00 0.00 70 1018.8
20260902170843 68 183 4.0 7.0 0.00 0.00 0.00 70 1018.7
20260902170320 68 222 4.0 7.0 0.00 0.00 0.00 70 1018.8
20260902165816 68 201 4.0 8.0 0.00 0.00 0.00 69 1018.8
20260902165309 68 241 4.0 10.0 0.00 0.00 0.00 69 1018.8
20260902164804 69 201 2.0 10.0 0.00 0.00 0.00 69 1018.8
20260902164800 69 235 2.0 6.0 0.00 0.00 0.00 72 1018.9
20260902163852 69 203 1.0 5.0 0.00 0.00 0.00 73 1018.9
20260902163338 69 249 1.0 4.0 0.00 0.00 0.00 73 1018.9
20260902162828 69 185 1.0 4.0 0.00 0.00 0.00 73 1019.0
20260902162323 69 233 1.0 4.0 0.00 0.00 0.00 73 1019.0
20260902161814 69 210 1.0 5.0 0.00 0.00 0.00 72 1019.0
20260902161305 69 226 1.0 5.0 0.00 0.00 0.00 72 1019.0
20260902160803 69 272 2.0 7.0 0.00 0.00 0.00 72 1019.0
20260902160359 69 224 3.0 7.0 0.00 0.00 0.00 70 1019.0